HECA - Cairo Intl. Airport

HECA 221800Z 07014KT CAVOK 35/09 Q1012 NOSIG


Sceneries:

Scenery Link
HECA/CAI - FREEWARE - AIG Cairo 2011
HECA/CAI - FREEWARE - Cairo City 2012
HECA/CAI - FREEWARE - Cairo Intl Airport 2018
HECA/CAI - SDG - CAIRO INTL AIRPORT V2 HECA FSX P3D

Briefing & Aerodrome Charts:

If are seeing this paragrapgh, it means that you don't have a web integerated PDF reader installed, however, you can still download the PDF from here.


Our Partners

VATSIM

VATSIM is the Virtual Air Traffic Simulation network, connecting people from around the world flying online or acting as virtual Air Traffic Controllers.

VATME

VATME - VATSIM Middle East Divison is part of the Africa and Middle East Region on the VATSIM Network.

Egyptair Virtual

Egyptair Virtual simulates the real life operations of Egyptair yet is not releated to the actual Egyptair.